Погода в Выльгорте

Россия / Республика Коми     61°37′19″N   50°45′10″E
темп.,
°C
ветер,
м/с
пор.,
м/с
влажн.,
%
обл.,
%
осадки,
мм/ч
давл.,
гПа
погр.,
м
14 апреля, ср
ср1400:00+7ююз41197100 0.0 1025454
03:00+7ююз41097100 0.0 1024500
06:00+8ююз41099100 0.0 1022358
09:00+10ююз5118893 0.0 1021414
12:00+15ююз5127082 0.0 1020786
15:00+17юз61363100 0.0 10181206
18:00+14ююз6146961 0.0 1017799
21:00+12ююз61678100 0.0 1016730
15 апреля, чт
чт1500:00+10юз6168377 0.0 1015706
03:00+8сз5989100 0.0 1016628
06:00+2ссз3997100 1.3 1020424
09:00+5ссз4766100 2.3 1021976
12:00+7сз464591 0.0 10231517
15:00+7сз4742100 0.0 10241697
18:00+5сз38545 0.0 1026416
21:00+2ссз29700 0.0 1028253
16 апреля, пт
пт1600:00−1ссз26781 0.0 1030144
03:00−1с23825 0.0 103168
06:000ссз117251 0.0 1032145
09:00+4з23486 0.0 1031935
12:00+7з45375 0.0 10301433
15:00+8зсз574164 0.0 10281738
18:00+6зсз495245 0.0 1027542
21:00+3сз39755 0.1 1028284
17 апреля, сб
сб1700:00+1сз28905 0.0 1029198
03:00−1сз25945 0.0 1029135
06:00+1зсз268488 0.0 1029250
09:00+4сз5870100 0.1 10281209
12:00+6сз595199 0.1 10281631
15:00+7сз5115495 0.1 10281858
18:00+5сз51362100 0.0 10271729
21:00+4сз5127763 0.1 10271355
18 апреля, вс
вс1800:00+2ссз5107421 0.1 10281006
03:00−1с49695 0.1 1031685
06:00−1с47655 0.0 1032873
09:00+2с35435 0.0 10331509
12:00+4с35335 0.0 10341905
15:00+5ссв34305 0.0 10342060
18:00+3ссв24385 0.0 1035161
21:00−1всв11505 0.0 103610